[[{"header":{"parameterUnit":"m.s-1","parameterCategory":1,"la1":30.2991,"la2":30.254,"lo1":-89.0895,"lo2":-89.0444,"dy":0.0017,"dx":0.0017,"nx":28,"ny":28,"refTime":"2025-08-13T21:00:00:Z","depth":0,"parameterNumber":2,"parameterNumberName":"U-component_of_WINDS"},"data":[0,0,0,0,0,0,0,0,0,0,0,0,0,0,0,0,0,0,0,0,0,0,0,0,0,0,0,0,0,0,0,0,0,0,0,0,0,0,0,0,0,0,0,0,0,0,0,0,0,0,0,0,0,0,0,0,0,0,2.8709,2.8709,0,2.8703,2.8703,2.8703,2.8608,2.8606,2.8604,2.8601,2.8598,2.86,2.8602,0,0,0,0,0,0,0,0,0,0,0,0,0,2.8639,2.8641,2.8709,2.8709,2.8709,2.8703,2.8703,2.8703,2.8609,2.8606,2.8603,2.86,2.8597,2.86,2.8602,0,0,0,0,0,0,0,0,0,0,0,0,0,2.8655,2.8641,2.8709,2.8661,2.8657,2.8703,2.8703,2.8703,2.8609,2.8606,2.8602,2.8599,2.8596,2.8599,2.8602,2.8695,0,0,2.8612,2.8614,0,0,0,0,0,0,0,0,2.8654,2.8658,2.8668,2.8664,2.866,2.8653,2.8677,2.87,2.861,2.8628,2.8601,2.8597,2.8619,2.862,2.8627,2.8695,2.8695,2.8613,2.8615,2.8616,2.8617,0,0,0,0,0,0,0,2.8653,2.8657,2.8707,2.8668,2.8663,2.864,2.8638,2.8681,2.8644,2.8626,2.8619,2.8619,2.8616,2.8624,2.8626,2.8695,2.8613,2.8615,2.8617,2.8619,2.8835,2.8838,0,0,0,0,0,0,2.8659,2.8657,2.8707,2.8706,2.8648,2.8644,2.8642,2.8659,2.8643,2.8637,2.8622,2.8615,2.862,2.8623,2.8626,2.8731,2.8616,2.8619,2.8621,2.8831,2.8835,2.8839,0,0,0,0,0,0,2.8658,2.8664,2.8707,2.868,2.8684,2.8649,2.8668,2.866,2.8668,2.864,2.8633,2.8637,2.8618,2.8621,2.8678,2.8729,2.862,2.8623,2.8826,2.8832,2.8837,2.8943,0,0,0,0,0,0,2.8656,2.8664,2.8699,2.8681,2.8685,2.8759,2.8672,2.8663,2.8674,2.8664,2.8653,2.8647,2.8615,2.8673,2.8681,2.8732,2.8626,2.8822,2.8829,2.8836,2.8934,2.8951,2.8966,0,0,0,0,0,2.8654,2.873,2.8701,2.8708,2.8728,2.8762,2.8765,2.8725,2.8679,2.8713,2.8695,2.8648,2.8723,2.868,2.8688,2.874,2.8818,2.8827,2.8835,2.8927,2.8948,2.8965,0,0,0,0,0,0,2.8757,2.8727,2.8695,2.8768,2.8768,2.8746,2.8789,2.8749,2.8763,2.8753,2.8704,2.8703,2.8766,2.8759,2.8712,2.8827,2.8762,2.8773,2.883,2.8849,2.8864,2.8864,2.8629,0,0,0,0,0,2.8788,2.8817,2.879,2.8857,2.8859,2.8824,2.8838,2.8807,2.8805,2.8805,2.8791,2.8792,2.8815,2.8832,2.8852,2.8933,2.8928,2.8973,2.8989,2.9002,2.9011,2.9051,2.9069,2.8868,2.8867,2.8867,0,0,2.8853,2.884,2.8862,2.8877,2.8874,2.8905,2.8825,2.8862,2.8885,2.8811,2.8862,2.8852,2.885,2.8918,2.8948,2.8914,2.9066,2.9013,2.9023,2.9025,2.9061,2.908,2.9097,2.8873,2.8872,2.8871,0,0,2.8986,2.898,2.9034,2.9031,2.9026,2.9002,2.9015,2.8999,2.8989,2.9039,2.8984,2.901,2.9052,2.9052,2.9057,2.9188,2.9144,2.9196,2.9277,2.9316,2.9332,2.9346,2.939,2.9407,2.9205,2.9206,2.9206,0,2.9067,2.9112,2.9067,2.9107,2.9114,2.9047,2.9101,2.9101,2.9104,2.911,2.9073,2.9122,2.9116,2.9182,2.9213,2.9221,2.9233,2.9196,2.9333,2.9347,2.9359,2.9401,2.9418,2.9212,2.9211,2.921,2.921,0,2.921,2.9242,2.9286,2.9287,2.93,2.9347,2.9309,2.9327,2.9295,2.9275,2.9326,2.9316,2.9332,2.9346,2.9316,2.9407,2.9386,2.9342,2.9275,2.9385,2.9423,2.9439,2.9221,2.9218,2.9217,2.9215,0,0,2.9409,2.9383,2.94,2.9399,2.9387,2.9411,2.9454,2.9468,2.9483,2.9487,2.9521,2.9557,2.9515,2.9521,2.9491,2.9525,2.9626,2.9476,2.9475,2.9503,2.9723,2.9755,2.9775,2.9598,2.9601,2.9603,2.9723,0,2.9536,2.9606,2.9566,2.9643,2.967,2.9606,2.9643,2.964,2.9622,2.9643,2.9623,2.9648,2.9592,2.9595,2.9627,2.9607,2.967,2.9598,2.9628,2.963,2.9629,2.9795,2.9829,2.9943,2.9738,2.974,2.9742,0,2.9693,2.9701,2.9779,2.976,2.977,2.9804,2.9811,2.9833,2.9827,2.9811,2.9817,2.9777,2.9818,2.9752,2.9806,2.9759,2.9768,2.9761,2.9764,2.9764,2.9692,2.9798,2.9978,2.9995,2.9766,2.9764,2.9762,0,2.9827,2.9858,2.9907,2.9909,2.9888,2.9913,2.9905,2.9896,2.9906,2.9914,2.9919,2.9932,2.9939,2.995,2.9914,2.987,2.9972,2.9904,2.9959,2.996,2.9983,2.9982,3.0166,2.9992,2.9992,2.9992,2.9992,0,2.9971,3.0022,2.9967,2.9998,3.0051,3.0004,3.0059,3.0045,3.0037,3.0063,3.001,3.0036,2.9988,3.001,2.9982,3.003,3.0034,3.0022,3.0014,3.0025,3.0027,3.003,3.0021,2.9996,2.9995,2.9994,2.9994,0,3.013,3.0095,3.0145,3.012,3.0115,3.0156,3.0134,3.0161,3.0139,3.0173,3.0179,3.0144,3.0166,3.0131,3.0151,3.0132,3.0197,3.0178,3.0198,3.0192,3.0248,3.0243,3.044,3.0462,3.0276,3.0278,3.028,0,3.0223,3.026,3.0238,3.0251,3.0246,3.0268,3.0277,3.0233,3.0244,3.0239,3.0267,3.0284,3.0295,3.0334,3.031,3.0324,3.0303,3.0372,3.0305,3.0315,3.0302,3.0299,3.0302,3.0385,3.0387,3.0389,3.039,0,3.0392,3.0372,3.0387,3.0395,3.0407,3.0411,3.0412,3.0426,3.0379,3.0395,3.0415,3.0424,3.0442,3.0459,3.0466,3.0459,3.0417,3.0412,3.0424,3.0436,3.0446,3.0439,3.0233,3.0407,3.0405,3.0404,3.0403,3.0403,3.0519,3.0547,3.0535,3.0553,3.0548,3.0549,3.0573,3.0552,3.0568,3.0578,3.0551,3.0578,3.057,3.0575,3.0572,3.0592,3.0562,3.0582,3.0587,3.0592,3.0599,3.0444,3.0594,3.0593,3.0593,3.0592,3.0592,0,3.0683,3.0672,3.0688,3.0689,3.0702,3.066,3.0658,3.0672,3.0696,3.0692,3.0703,3.0726,3.0742,3.0719,3.0731,3.0752,3.0733,3.0756,3.0754,3.0752,3.0627,3.0613,3.0772,3.0772,3.0772,3.0771,3.0771,3.0771,3.077,3.0814,3.0793,3.0834,3.0823,3.0847,3.0849,3.085,3.0846,3.0873,3.0885,3.087,3.0858,3.0868,3.0881,3.0874,3.088,3.091,3.0896,3.0779,3.0761,3.0745,3.0731,3.0912,3.0913,3.102,3.1021,3.1022]},{"header":{"parameterUnit":"m.s-1","parameterCategory":1,"la1":30.2991,"la2":30.254,"lo1":-89.0895,"lo2":-89.0444,"dy":0.0017,"dx":0.0017,"nx":28,"ny":28,"refTime":"2025-08-13T21:00:00:Z","depth":0,"parameterNumber":3,"parameterNumberName":"V-component_of_WINDS"},"data":[0,0,0,0,0,0,0,0,0,0,0,0,0,0,0,0,0,0,0,0,0,0,0,0,0,0,0,0,0,0,0,0,0,0,0,0,0,0,0,0,0,0,0,0,0,0,0,0,0,0,0,0,0,0,0,0,0,0,3.7151,3.7152,0,3.7196,3.7196,3.7197,3.7178,3.7177,3.7176,3.7175,3.7215,3.7217,3.7219,0,0,0,0,0,0,0,0,0,0,0,0,0,3.7044,3.7046,3.7151,3.7152,3.7152,3.7196,3.7196,3.7197,3.7178,3.7177,3.7175,3.7174,3.7215,3.7217,3.722,0,0,0,0,0,0,0,0,0,0,0,0,0,3.7089,3.7046,3.7151,3.7148,3.7148,3.7196,3.7196,3.7197,3.7178,3.7177,3.7175,3.7174,3.7214,3.7217,3.722,3.7271,0,0,3.723,3.7231,0,0,0,0,0,0,0,0,3.7087,3.7093,3.7148,3.7148,3.7149,3.718,3.7173,3.7222,3.7179,3.7167,3.7175,3.7173,3.7204,3.7208,3.722,3.7273,3.7275,3.723,3.7232,3.7233,3.7234,0,0,0,0,0,0,0,3.7084,3.7091,3.7169,3.7149,3.7149,3.7143,3.7148,3.7182,3.7194,3.7168,3.7166,3.7172,3.7204,3.7217,3.7221,3.7275,3.723,3.7232,3.7234,3.7236,3.7371,3.7372,0,0,0,0,0,0,3.7081,3.7089,3.7167,3.717,3.7113,3.7146,3.7151,3.7171,3.7193,3.7195,3.7174,3.7171,3.7213,3.7217,3.7222,3.7282,3.7233,3.7236,3.7238,3.7369,3.7371,3.7373,0,0,0,0,0,0,3.7079,3.7088,3.7165,3.7129,3.7138,3.715,3.7172,3.7173,3.7186,3.7198,3.7199,3.7185,3.7211,3.7218,3.7259,3.7283,3.7237,3.724,3.7367,3.737,3.7372,3.7402,0,0,0,0,0,0,3.7076,3.7088,3.7108,3.713,3.714,3.7203,3.7174,3.7175,3.7192,3.7189,3.7209,3.7211,3.7211,3.7255,3.7262,3.7286,3.7243,3.7365,3.7368,3.7371,3.7399,3.7406,3.7411,0,0,0,0,0,3.7072,3.7114,3.711,3.7119,3.7167,3.7205,3.721,3.7211,3.7194,3.7214,3.7222,3.721,3.728,3.7259,3.7267,3.7293,3.7363,3.7367,3.7371,3.7397,3.7405,3.7411,0,0,0,0,0,0,3.7093,3.7117,3.7112,3.7163,3.7182,3.7201,3.7226,3.722,3.7243,3.7239,3.7238,3.7242,3.7284,3.7293,3.727,3.7343,3.7319,3.7324,3.7335,3.7343,3.7349,3.7344,3.7245,0,0,0,0,0,3.7105,3.7135,3.7153,3.7196,3.7206,3.7215,3.7231,3.7231,3.725,3.7257,3.7268,3.7285,3.7311,3.7328,3.7352,3.7402,3.7404,3.7423,3.7429,3.7434,3.7438,3.7463,3.7471,3.7386,3.7386,3.7386,0,0,3.7127,3.7143,3.7162,3.7201,3.7216,3.7245,3.7222,3.7254,3.7275,3.7261,3.7301,3.731,3.7329,3.7374,3.7394,3.7382,3.7463,3.7439,3.7443,3.7444,3.7467,3.7475,3.7483,3.7388,3.7388,3.7388,0,0,3.7181,3.7199,3.7235,3.7251,3.7274,3.728,3.7289,3.731,3.7315,3.7356,3.7345,3.737,3.7415,3.7429,3.7441,3.7503,3.7492,3.7511,3.7541,3.7565,3.7571,3.7577,3.7597,3.7604,3.7515,3.7515,3.7515,0,3.7205,3.7251,3.7254,3.7288,3.7304,3.7295,3.7331,3.7346,3.7375,3.7386,3.7373,3.7429,3.7441,3.7488,3.7503,3.7515,3.7523,3.7507,3.7571,3.7577,3.7582,3.76,3.7608,3.7517,3.7517,3.7517,3.7517,0,3.7278,3.731,3.7337,3.7367,3.7387,3.7421,3.7428,3.7447,3.7445,3.7451,3.7491,3.7507,3.7533,3.7545,3.7543,3.7592,3.7583,3.7571,3.7546,3.7592,3.7609,3.7616,3.752,3.7519,3.7519,3.7518,0,0,3.7345,3.7378,3.7387,3.7401,3.7426,3.745,3.7484,3.7512,3.7527,3.7548,3.7574,3.7613,3.7602,3.7616,3.7616,3.7637,3.7682,3.7622,3.7622,3.763,3.7734,3.7742,3.775,3.7676,3.7678,3.7679,3.7732,0,3.74,3.746,3.7465,3.7518,3.7546,3.7539,3.7568,3.7586,3.7593,3.7617,3.7624,3.7651,3.7635,3.7643,3.7665,3.7672,3.7702,3.7669,3.7698,3.7699,3.7691,3.7759,3.7767,3.7816,3.7739,3.774,3.7741,0,3.7471,3.7496,3.7553,3.7574,3.7586,3.7612,3.7638,3.7662,3.7681,3.7685,3.7702,3.7698,3.7731,3.7707,3.775,3.7727,3.774,3.7746,3.7747,3.7748,3.7721,3.7759,3.7832,3.7839,3.7752,3.7751,3.775,0,3.7511,3.7559,3.7599,3.7611,3.7637,3.7655,3.7667,3.7685,3.7702,3.7724,3.7734,3.7759,3.7772,3.7791,3.7793,3.7776,3.7836,3.7813,3.7838,3.7838,3.7848,3.7847,3.7922,3.7861,3.7861,3.7861,3.7861,0,3.757,3.7604,3.7617,3.7641,3.7679,3.7684,3.772,3.7731,3.7747,3.7772,3.7767,3.779,3.7793,3.7817,3.7819,3.7853,3.786,3.7862,3.7861,3.7861,3.786,3.7867,3.7862,3.7863,3.7862,3.7862,3.7862,0,3.762,3.763,3.7673,3.7695,3.7702,3.7728,3.7746,3.7768,3.7776,3.7807,3.7815,3.7826,3.7853,3.7858,3.789,3.7891,3.7931,3.7929,3.7925,3.7924,3.7947,3.7944,3.8026,3.8037,3.7972,3.7972,3.7973,0,3.7655,3.7682,3.7708,3.7725,3.7738,3.7765,3.7782,3.7788,3.7805,3.783,3.7849,3.7876,3.7898,3.7941,3.795,3.7974,3.7971,3.7998,3.7974,3.7972,3.7968,3.7965,3.7967,3.8002,3.8002,3.8003,3.8003,0,3.7716,3.772,3.7746,3.7774,3.7795,3.7817,3.7837,3.7851,3.7859,3.7879,3.7907,3.7924,3.7957,3.7983,3.8007,3.8017,3.8011,3.8012,3.8018,3.8016,3.8012,3.8012,3.7934,3.8009,3.8008,3.8008,3.8007,3.8007,3.7758,3.7781,3.7803,3.7831,3.7848,3.7868,3.7889,3.79,3.7925,3.7953,3.7955,3.7985,3.8004,3.8036,3.8047,3.807,3.8061,3.8071,3.8073,3.8075,3.8076,3.8011,3.8075,3.8074,3.8074,3.8074,3.8074,0,3.7817,3.7831,3.7858,3.7887,3.7909,3.7905,3.7927,3.7945,3.7973,3.7992,3.8014,3.8046,3.8071,3.8084,3.8108,3.8124,3.8121,3.813,3.8127,3.8129,3.8083,3.8074,3.8131,3.8131,3.8131,3.8131,3.8131,3.8131,3.785,3.7888,3.7894,3.794,3.7953,3.7985,3.7998,3.8015,3.803,3.8066,3.8088,3.8097,3.8113,3.8139,3.8161,3.8164,3.8172,3.8181,3.8182,3.8139,3.8133,3.8127,3.8118,3.8184,3.8184,3.8226,3.8226,3.8227]}]]